Regional Weather Roundup
Issued by NWS Upton, NY

Home | Current Version | Previous Version | Text Only | Print | Product List | Glossary On
Versions: 1 2 3 4 5 6 7 8 9 10 11 12 13 14 15 16 17 18 19 20 21 22 23 24 25 26 27 28
000
ASUS41 KOKX 260005
RWROKX

REGIONAL WEATHER ROUNDUP
NATIONAL WEATHER SERVICE NEW YORK NY
800 PM EDT SAT OCT 25 2014

NOTE: "FAIR" INDICATES FEW OR NO CLOUDS BELOW 12,000 FEET WITH NO
SIGNIFICANT WEATHER AND/OR OBSTRUCTIONS TO VISIBILITY.

NYZ071-072-176-178-NJZ106-104-260100-
NEW YORK CITY METRO AREA


CITY           SKY/WX    TMP DP  RH WIND       PRES   REMARKS
CENTRAL PARK   MOCLDY    64  42  44 VRB5      29.66S
LAGUARDIA APRT MOCLDY    64  43  46 SW8       29.64S
KENNEDY INTL   PTCLDY    62  46  55 SW12      29.66S
NEWARK/LIBERTY MOCLDY    64  44  48 SW13      29.64S
BRNX BOT. GARD   N/A     63  43  48 SW8       29.64S
TETERBORO      MOCLDY    61  44  53 S6        29.63S
$$

NYZ177-179-078>081-260100-
LONG ISLAND NEW YORK

CITY           SKY/WX    TMP DP  RH WIND       PRES   REMARKS
FARMINGDALE    CLEAR     61  47  59 SW7       29.65S
ISLIP          PTCLDY    58  49  72 SW7       29.63S
SHIRLEY        CLEAR     59  50  72 SW8       29.65S
WESTHAMPTON    CLEAR     59  51  75 SW8       29.65F
MONTAUK POINT    N/A     59  49  69 SW6       29.65F
$$

NYZ052-065-067-260100-
HUDSON VALLEY

CITY           SKY/WX    TMP DP  RH WIND       PRES   REMARKS
WHITE PLAINS   PTCLDY    59  43  55 CALM      29.62F
NEWBURGH       CLEAR    N/A N/A N/A VRB6      29.60F
MONTGOMERY     CLEAR     51  44  77 S5        29.57F
POUGHKEEPSIE   CLEAR     55  45  68 CALM      29.58F
ALBANY         LGT RAIN  58  45  62 S5        29.54S
$$

NJZ001-105-106-008-010-013-015-019>022-104-260100-
NEW JERSEY

CITY           SKY/WX    TMP DP  RH WIND       PRES   REMARKS
NEWARK/LIBERTY MOCLDY    64  44  48 SW13      29.64S
TETERBORO      MOCLDY    61  44  53 S6        29.63S
CALDWELL       MOCLDY    62  42  47 SW5       29.64F
MORRISTOWN     CLEAR     61  45  55 SW8       29.64F
SOMERVILLE     CLOUDY    56  46  69 CALM      29.63F
SUSSEX         CLEAR     62  44  51 SW6       29.61F
ANDOVER          N/A     60  43  53 SW7       29.63F
TRENTON        CLOUDY    62  43  49 SW7       29.67S
MILLVILLE      CLEAR     60  46  59 SW5       29.72R
ATLANTIC CITY  CLEAR     59  46  62 SW8       29.71S
WRIGHTSTOWN    MOCLDY    58  47  65 SW8       29.66S
TOMS RIVER     CLEAR     57  45  62 SW5       29.69S
BELMAR         CLEAR     59  43  55 SW6       29.67S
$$

PAZ047>061-062-071-260100-
EASTERN PENNSYLVANIA

CITY           SKY/WX    TMP DP  RH WIND       PRES   REMARKS
PHILADELPHIA   PTCLDY    64  45  49 SW14      29.69S
ALLENTOWN      CLOUDY    63  44  50 SW9       29.65S
SCRANTON       CLEAR     63  44  50 SW13      29.61F
$$

CTZ002-004>006-009-010-012-RIZ004-006-007-MAZ004-011-015-260100-
SOUTHERN NEW ENGLAND
 IN CT

CITY           SKY/WX    TMP DP  RH WIND       PRES   REMARKS
BRADLEY INTL   CLOUDY    60  42  51 S7        29.58F
HARTFORD       CLOUDY    57  45  64 S6        29.60F
DANBURY        PTCLDY    52  43  71 SW3       29.62F
WTRBRY/OXFORD  MOCLDY    55  41  58 CALM      29.61F
BRIDGEPORT     PTCLDY    63  51  65 SW10      29.62F
MERIDEN        CLOUDY    54  45  71 S6        29.61F
NEW HAVEN      PTCLDY    62  50  64 SW7       29.61F
CHESTER        FAIR      57  48  72 S7        29.62F
GROTON         MOCLDY    59  48  67 SW13      29.62S
WILLIMANTIC    CLOUDY    53  44  71 CALM      29.61F

 IN RI

CITY           SKY/WX    TMP DP  RH WIND       PRES   REMARKS
PROVIDENCE     MOCLDY    56  45  66 SW5       29.62S
BLOCK ISLAND   CLEAR     61  45  55 W14       29.63S
WESTERLY       CLEAR     59  49  69 SW7       29.63S

 IN MA

CITY           SKY/WX    TMP DP  RH WIND       PRES   REMARKS
BOSTON         MOCLDY    60  44  55 W12       29.58F
WORCESTER      PTCLDY    49  43  80 SW8       29.59F
WESTFIELD      MOCLDY    54  44  69 S6        29.57F
PROVINCETOWN   PTCLDY    54   0  11 SW12      29.60F
NANTUCKET      CLEAR     57  48  72 W13       29.63S
$$

ANZ330-335-338-340-345-350-353-355-260100-
COASTAL MARINE OBSERVATIONS


STATION/POSITION TIME  SKY/WX   TEMP    WIND        PRES    VSBY  WAVE
                                AIR SEA DIR/SP/G                  HT/PER
                 (UTC)          (F)     (DEG/KT/KT) (MB)    (MI)  (FT/S)
NY HARB ENTRANCE NOT AVBL
4S FIRE IS       0000               62                N/A           2/ 3
20S FIRE ISLAND  0000            64 63  240/ 17/ 21 1004.1          3/ 5
23SW MTP         0000                                 N/A           4/ 6
HUDSON CANYON    0000            63 65  250/ 21/ 25 1005.1          5/ 5
EXECUTION ROCKS  0000            65 62  230/ 12/ 17   N/A
WESTERN LI SOUND 2300            64     210/ 10/ 12   N/A           1
CENTRAL LI SOUND 2300            61 63  210/ 14/ 17   N/A           2/ 4
EASTERN LI SOUND 2300            61 62  220/ 14/ 17   N/A
ROBBINS REEF     0000            65     240/ 12/ 16 1002.7
$$


>>>>>>>>>>>>>>>>>>>>>>>>>>>> KEY <<<<<<<<<<<<<<<<<<<<<<<<<<<
>                                                          <
>     SKY/WX - SKY CONDITION/PRESENT WEATHER               <
>     TMP    - TEMPERATURE IN FAHRENHEIT                   <
>     DP     - DEWPOINT IN FAHRENHEIT                      <
>     RH     - RELATIVE HUMIDITY IN PERCENT                <
>     WIND   - DIRECTION AND SPEED IN MPH                  <
>     PRES   - MEAN SEA LEVEL PRESSURE IN INCHES OF HG     <
>     WCI    - WIND CHILL INDEX                            <
>     VSB    - VISIBILITY IN MILES                         <
>     HX     - HEAT INDEX                                  <
>     TC     - TEMPERATURE IN CELSIUS                      <
>     VRB    - VARIABLE WIND DIRECTION                     <
>                                                          <
>>>>>>>>>>>>>>>>>>>>>>>>>>>> KEY <<<<<<<<<<<<<<<<<<<<<<<<<<<





USA.gov is the U.S. government's official web portal to all federal, state and local government web resources and services.